ARIANE 40 R/B

Satellite information

Favourite Embed

Satellite Type and Status

ROCKET BODYIN ORBIT

Key statistics

Satellite ARIANE 40 R/B at a glance.

Uptime

12950

Days in orbit

Revolutions

≈ 14.4

Per day

Orbit

SSO

Sun Synchronous Orbit

Inclination

98.3

Latest

Satellite identification and parameters

Extended collection of information and parameters for ARIANE 40 R/B.

Object identification

Identified? True

Debris? False

Object name: ARIANE 40 R/B

International designator: 1990-005H

Object number (NORAD): 20443

Object ID (CCSDS): 20443

Country: FRANCE (FR)

Current information (Y/N): Y

RCS size: LARGE

Orbital parameters

Period: 100.024 minutes

Inclination: 98.3451 deg

SMA: 7137.79 km

Apoapsis: 766.348 km

Periapsis: 752.962 km

RAAN: 250.2686 deg

Eccentricy: 0.0009377

Argument of periapsis: 218.6254 deg

Mean anomaly: 141.4265 deg

Mean motion: 14.39650534 rev/day

Mean motion (dot): 0.00000193 rev/day2

B* drag term: 0.000075319 1/REarth

Two-line elements (TLE)

Creation date: July 6, 2025, 10:26 p.m.

Reference frame: TEME

Reference center: EARTH

Epoch: July 6, 2025, 7:06 p.m. UTC

TLE line 0: 0 ARIANE 40 R/B

TLE line 1: 1 20443U 90005H 25187.79596838 .00000193 00000-0 75319-4 0 9997

TLE line 2: 2 20443 98.3451 250.2686 0009377 218.6254 141.4265 14.39650534857685

Live tracking on map

Real-time ground track for satellite ARIANE 40 R/B.

In-orbit conjunctions

A list of the most updated potential collisions computed for object ARIANE 40 R/B.

Target Orbit TCA Probability of collision Miss distance Type
SL-16 DEB LEO 2025-05-31 09:34:29 0.0003391583 179.0 (m) DEBRIS
CZ-6A DEB LEO 2025-05-26 05:11:37 0.0002482311 765.0 (m) DEBRIS
FENGYUN 1C DEB SSO 2025-02-25 19:06:38 0.0002728507 324.0 (m) DEBRIS
COSMOS 2251 DEB LEO 2025-01-06 19:52:03 0.0001208376 923.0 (m) DEBRIS
COSMOS 1275 DEB LEO 2024-07-06 18:09:20 0.000166175 107.0 (m) DEBRIS

Associated space launch

French Earth observation satellite

ARIANE 40 R/B was lifted into orbit during the mission ‘Ariane 40 | SPOT 2’, on board a Ariane 40 space rocket.

The launch took place on Jan. 22, 1990, 1:35 a.m. from Ariane Launch Area 2.

For more information about the launch, click the button.

Launch to space Ariane 40 | SPOT 2
Ariane 40 | SPOT 2

Agency: N/A

Status: Launch Successful

Launch date: Jan. 22, 1990, 1:35 a.m. UTC

Rocket: Ariane 40

Launch pad: Ariane Launch Area 2

Location: Guiana Space Centre, French Guiana

...

Latest news about this satellite

There are no fresh news available about this satellite. Check back as we update our databases every day.


Newsletter sign-up

Weekly statistics, charts and insights to help you stay on top of the space industry.